Location: Kott?ru
(16.6209°N, 80.6208°E)
Time: 20:40:09
(UTC+00:00)

Cosmos 2219 Rocket - Pass Details

Date: 18 September 2020
Orbit: 827 x 847 km, 71.0° (Epoch: 27 October)

Event Time Altitude Azimuth Distance (km) Brightness Sun altitude
Rises 23:41:05 0° 187° (S) 3,370 5.2 -11.6°
Reaches altitude 10° 23:43:32 10° 184° (S) 2,440 4.5 -11.0°
Maximum altitude 23:49:02 59° 105° (ESE) 959 2.9 -9.7°
Drops below altitude 10° 23:54:34 10° 26° (NNE) 2,457 5.1 -8.4°
Sets 23:57:03 0° 23° (NNE) 3,395 5.7 -7.8°
